Time,TemperatureF,DewpointF,PressureIn,WindDirection,WindDirectionDegrees,WindSpeedMPH,WindSpeedGustMPH,Humidity,HourlyPrecipIn,Conditions,Clouds,dailyrainin,SoftwareType,DateUTC
2013-05-07 00:01:00,57.6,54.4,29.61,NNW,338,0.4,0.4,89,0.00,,,0.00,WUHU216HW,2013-05-07 04:01:00,
2013-05-07 00:06:00,57.6,54.4,29.61,NNW,338,0.4,0.4,89,0.00,,,0.00,WUHU216HW,2013-05-07 04:06:00,
2013-05-07 00:30:00,57.6,54.4,29.61,East,90,0.9,0.9,89,0.00,,,0.00,WUHU216HW,2013-05-07 04:30:00,
2013-05-07 00:35:00,57.6,54.4,29.61,East,90,0.9,0.9,89,0.00,,,0.00,WUHU216HW,2013-05-07 04:35:00,
2013-05-07 00:59:00,57.6,54.4,29.60,ENE,68,2.7,2.7,89,0.00,,,0.00,WUHU216HW,2013-05-07 04:59:00,
2013-05-07 01:04:00,57.6,54.4,29.60,ENE,68,2.7,2.7,89,0.00,,,0.00,WUHU216HW,2013-05-07 05:04:00,
2013-05-07 01:30:00,57.6,54.4,29.60,West,270,0.2,0.2,89,0.00,,,0.00,WUHU216HW,2013-05-07 05:30:00,
2013-05-07 01:35:00,57.6,54.4,29.60,West,270,0.2,0.2,89,0.00,,,0.00,WUHU216HW,2013-05-07 05:35:00,
2013-05-07 01:59:00,57.6,54.4,29.59,ENE,68,1.1,1.1,89,0.00,,,0.00,WUHU216HW,2013-05-07 05:59:00,
2013-05-07 02:04:00,57.6,54.4,29.59,ENE,68,1.1,1.1,89,0.00,,,0.00,WUHU216HW,2013-05-07 06:04:00,
2013-05-07 02:30:00,57.4,54.5,29.58,ENE,68,2.7,2.7,90,0.00,,,0.00,WUHU216HW,2013-05-07 06:30:00,
2013-05-07 02:35:00,57.4,54.5,29.58,ENE,68,2.7,2.7,90,0.00,,,0.00,WUHU216HW,2013-05-07 06:35:00,
2013-05-07 02:59:00,57.4,54.5,29.57,ENE,68,0.0,0.0,90,0.00,,,0.00,WUHU216HW,2013-05-07 06:59:00,
2013-05-07 03:04:00,57.4,54.5,29.57,ENE,68,0.0,0.0,90,0.00,,,0.00,WUHU216HW,2013-05-07 07:04:00,
2013-05-07 03:30:00,57.4,54.5,29.56,North,0,2.7,2.7,90,0.00,,,0.00,WUHU216HW,2013-05-07 07:30:00,
2013-05-07 03:35:00,57.4,54.5,29.56,North,0,2.7,2.7,90,0.00,,,0.00,WUHU216HW,2013-05-07 07:35:00,
2013-05-07 03:59:00,57.4,54.5,29.56,North,0,0.2,0.2,90,0.00,,,0.00,WUHU216HW,2013-05-07 07:59:00,
2013-05-07 04:04:00,57.4,54.5,29.56,North,0,0.2,0.2,90,0.00,,,0.00,WUHU216HW,2013-05-07 08:04:00,
2013-05-07 04:30:00,57.4,54.8,29.56,NNE,23,1.8,1.8,91,0.00,,,0.00,WUHU216HW,2013-05-07 08:30:00,
2013-05-07 04:35:00,57.4,54.8,29.56,NNE,23,1.8,1.8,91,0.00,,,0.00,WUHU216HW,2013-05-07 08:35:00,
2013-05-07 04:59:00,57.4,54.5,29.56,ENE,68,0.4,0.4,90,0.00,,,0.00,WUHU216HW,2013-05-07 08:59:00,
2013-05-07 05:04:00,57.4,54.5,29.56,ENE,68,0.4,0.4,90,0.00,,,0.00,WUHU216HW,2013-05-07 09:04:00,
2013-05-07 05:30:00,57.4,54.5,29.56,NNE,23,2.9,2.9,90,0.00,,,0.00,WUHU216HW,2013-05-07 09:30:00,
2013-05-07 05:35:00,57.4,54.5,29.56,NNE,23,2.9,2.9,90,0.00,,,0.00,WUHU216HW,2013-05-07 09:35:00,
2013-05-07 05:59:00,57.4,54.5,29.56,North,0,0.4,0.4,90,0.00,,,0.00,WUHU216HW,2013-05-07 09:59:00,
2013-05-07 06:04:00,57.4,54.5,29.56,North,0,0.4,0.4,90,0.00,,,0.00,WUHU216HW,2013-05-07 10:04:00,
2013-05-07 06:30:00,57.4,54.5,29.56,NNE,23,2.0,2.0,90,0.00,,,0.00,WUHU216HW,2013-05-07 10:30:00,
2013-05-07 06:35:00,57.4,54.5,29.56,NNE,23,2.0,2.0,90,0.00,,,0.00,WUHU216HW,2013-05-07 10:35:00,
2013-05-07 06:59:00,57.6,54.7,29.57,East,90,0.7,0.7,90,0.00,,,0.00,WUHU216HW,2013-05-07 10:59:00,
2013-05-07 07:04:00,57.6,54.7,29.57,East,90,0.7,0.7,90,0.00,,,0.00,WUHU216HW,2013-05-07 11:04:00,
2013-05-07 07:30:00,57.6,55.0,29.58,NE,45,2.2,2.2,91,0.00,,,0.00,WUHU216HW,2013-05-07 11:30:00,
2013-05-07 07:35:00,57.6,55.0,29.58,NE,45,2.2,2.2,91,0.00,,,0.00,WUHU216HW,2013-05-07 11:35:00,
2013-05-07 07:59:00,58.0,55.1,29.57,North,0,1.1,1.1,90,0.00,,,0.00,WUHU216HW,2013-05-07 11:59:00,
2013-05-07 08:04:00,58.0,55.1,29.57,North,0,1.1,1.1,90,0.00,,,0.00,WUHU216HW,2013-05-07 12:04:00,
2013-05-07 08:30:00,58.3,55.4,29.57,NNE,23,0.4,0.4,90,0.00,,,0.00,WUHU216HW,2013-05-07 12:30:00,
2013-05-07 08:35:00,58.3,55.4,29.57,NNE,23,0.4,0.4,90,0.00,,,0.00,WUHU216HW,2013-05-07 12:35:00,
2013-05-07 08:59:00,58.1,55.3,29.58,ENE,68,2.5,2.5,90,0.00,,,0.00,WUHU216HW,2013-05-07 12:59:00,
2013-05-07 09:04:00,58.1,55.3,29.58,ENE,68,2.5,2.5,90,0.00,,,0.00,WUHU216HW,2013-05-07 13:04:00,
2013-05-07 09:30:00,58.3,55.7,29.59,NNW,338,1.8,1.8,91,0.00,,,0.00,WUHU216HW,2013-05-07 13:30:00,
2013-05-07 09:35:00,58.3,55.7,29.59,NNW,338,1.8,1.8,91,0.00,,,0.00,WUHU216HW,2013-05-07 13:35:00,
2013-05-07 10:00:00,58.3,55.4,29.58,East,90,4.0,4.0,90,0.00,,,0.00,WUHU216HW,2013-05-07 14:00:00,
2013-05-07 10:05:00,58.3,55.4,29.58,East,90,4.0,4.0,90,0.00,,,0.00,WUHU216HW,2013-05-07 14:05:00,
2013-05-07 10:30:00,58.1,55.3,29.58,ESE,113,3.4,3.4,90,0.00,,,0.00,WUHU216HW,2013-05-07 14:30:00,
2013-05-07 10:35:00,58.1,55.3,29.58,ESE,113,3.4,3.4,90,0.00,,,0.00,WUHU216HW,2013-05-07 14:35:00,
2013-05-07 11:00:00,58.3,55.4,29.59,NNE,23,1.8,1.8,90,0.00,,,0.00,WUHU216HW,2013-05-07 15:00:00,
2013-05-07 11:05:00,58.3,55.4,29.59,NNE,23,1.8,1.8,90,0.00,,,0.00,WUHU216HW,2013-05-07 15:05:00,
2013-05-07 11:30:00,58.5,55.9,29.58,North,0,0.4,0.4,91,0.00,,,0.00,WUHU216HW,2013-05-07 15:30:00,
2013-05-07 11:35:00,58.5,55.9,29.58,North,0,0.4,0.4,91,0.00,,,0.00,WUHU216HW,2013-05-07 15:35:00,
2013-05-07 12:00:00,58.9,56.3,29.59,NE,45,1.6,1.6,91,0.00,,,0.00,WUHU216HW,2013-05-07 16:00:00,
2013-05-07 12:05:00,58.9,56.3,29.59,NE,45,1.6,1.6,91,0.00,,,0.00,WUHU216HW,2013-05-07 16:05:00,
2013-05-07 12:30:00,59.0,56.2,29.58,ENE,68,1.1,1.1,90,0.00,,,0.00,WUHU216HW,2013-05-07 16:30:00,
2013-05-07 12:35:00,59.0,56.2,29.58,ENE,68,1.1,1.1,90,0.00,,,0.00,WUHU216HW,2013-05-07 16:35:00,
2013-05-07 12:59:00,58.9,56.0,29.57,East,90,1.1,1.1,90,0.00,,,0.00,WUHU216HW,2013-05-07 16:59:00,
2013-05-07 13:04:00,58.9,56.0,29.57,East,90,1.1,1.1,90,0.00,,,0.00,WUHU216HW,2013-05-07 17:04:00,
2013-05-07 13:30:00,58.7,55.8,29.56,NE,45,0.2,0.2,90,0.00,,,0.00,WUHU216HW,2013-05-07 17:30:00,
2013-05-07 13:35:00,58.7,55.8,29.56,NE,45,0.2,0.2,90,0.00,,,0.00,WUHU216HW,2013-05-07 17:35:00,
2013-05-07 13:59:00,58.7,55.8,29.56,NE,45,1.8,1.8,90,0.00,,,0.00,WUHU216HW,2013-05-07 17:59:00,
2013-05-07 14:04:00,58.7,55.8,29.56,NE,45,1.8,1.8,90,0.00,,,0.00,WUHU216HW,2013-05-07 18:04:00,
2013-05-07 14:30:00,58.3,55.4,29.54,NNE,23,1.3,1.3,90,0.01,,,0.00,WUHU216HW,2013-05-07 18:30:00,
2013-05-07 14:35:00,58.3,55.4,29.54,NNE,23,1.3,1.3,90,0.01,,,0.00,WUHU216HW,2013-05-07 18:35:00,
2013-05-07 14:59:00,58.1,55.5,29.53,NE,45,1.1,1.1,91,0.01,,,0.01,WUHU216HW,2013-05-07 18:59:00,
2013-05-07 15:04:00,58.1,55.5,29.53,NE,45,1.1,1.1,91,0.01,,,0.01,WUHU216HW,2013-05-07 19:04:00,
2013-05-07 15:30:00,58.9,56.3,29.53,SE,135,0.4,0.4,91,0.00,,,0.01,WUHU216HW,2013-05-07 19:30:00,
2013-05-07 15:35:00,58.9,56.3,29.53,SE,135,0.4,0.4,91,0.00,,,0.01,WUHU216HW,2013-05-07 19:35:00,
2013-05-07 15:59:00,59.4,57.1,29.53,NNE,23,0.0,0.0,92,0.00,,,0.01,WUHU216HW,2013-05-07 19:59:00,
2013-05-07 16:04:00,59.4,57.1,29.53,NNE,23,0.0,0.0,92,0.00,,,0.01,WUHU216HW,2013-05-07 20:04:00,
2013-05-07 16:30:00,60.1,57.8,29.52,SSE,158,0.7,0.7,92,0.00,,,0.01,WUHU216HW,2013-05-07 20:30:00,
2013-05-07 16:35:00,60.1,57.8,29.52,SSE,158,0.7,0.7,92,0.00,,,0.01,WUHU216HW,2013-05-07 20:35:00,
2013-05-07 16:59:00,60.7,58.3,29.51,NNW,338,0.4,0.4,92,0.00,,,0.01,WUHU216HW,2013-05-07 20:59:00,
2013-05-07 17:04:00,60.7,58.3,29.51,NNW,338,0.4,0.4,92,0.00,,,0.01,WUHU216HW,2013-05-07 21:04:00,
2013-05-07 17:30:00,60.7,58.3,29.50,North,0,1.8,1.8,92,0.00,,,0.01,WUHU216HW,2013-05-07 21:30:00,
2013-05-07 17:35:00,60.7,58.3,29.50,North,0,1.8,1.8,92,0.00,,,0.01,WUHU216HW,2013-05-07 21:35:00,
2013-05-07 17:59:00,61.0,58.7,29.50,ENE,68,1.6,1.6,92,0.00,,,0.01,WUHU216HW,2013-05-07 21:59:00,
2013-05-07 18:04:00,61.0,58.7,29.50,ENE,68,1.6,1.6,92,0.00,,,0.01,WUHU216HW,2013-05-07 22:04:00,
2013-05-07 18:30:00,61.2,58.9,29.50,NNE,23,1.8,1.8,92,0.00,,,0.01,WUHU216HW,2013-05-07 22:30:00,
2013-05-07 18:35:00,61.2,58.9,29.50,NNE,23,1.8,1.8,92,0.00,,,0.01,WUHU216HW,2013-05-07 22:35:00,
2013-05-07 18:59:00,61.4,59.0,29.49,East,90,1.6,1.6,92,0.00,,,0.01,WUHU216HW,2013-05-07 22:59:00,
2013-05-07 19:04:00,61.4,59.0,29.49,East,90,1.6,1.6,92,0.00,,,0.01,WUHU216HW,2013-05-07 23:04:00,
2013-05-07 19:30:00,61.0,58.7,29.50,NE,45,2.0,2.0,92,0.00,,,0.01,WUHU216HW,2013-05-07 23:30:00,
2013-05-07 19:35:00,61.0,58.7,29.50,NE,45,2.0,2.0,92,0.00,,,0.01,WUHU216HW,2013-05-07 23:35:00,
2013-05-07 19:59:00,60.7,58.3,29.50,North,0,1.1,1.1,92,0.00,,,0.01,WUHU216HW,2013-05-07 23:59:00,
2013-05-07 20:04:00,60.7,58.3,29.50,North,0,1.1,1.1,92,0.00,,,0.01,WUHU216HW,2013-05-08 00:04:00,
2013-05-07 20:30:00,60.1,57.5,29.51,North,0,0.9,0.9,91,0.00,,,0.01,WUHU216HW,2013-05-08 00:30:00,
2013-05-07 20:35:00,60.1,57.5,29.51,North,0,0.9,0.9,91,0.00,,,0.01,WUHU216HW,2013-05-08 00:35:00,
2013-05-07 20:59:00,60.1,57.5,29.50,NE,45,0.2,0.2,91,0.00,,,0.01,WUHU216HW,2013-05-08 00:59:00,
2013-05-07 21:04:00,60.1,57.5,29.50,NE,45,0.2,0.2,91,0.00,,,0.01,WUHU216HW,2013-05-08 01:04:00,
2013-05-07 21:30:00,59.9,57.6,29.50,East,90,1.1,1.1,92,0.00,,,0.01,WUHU216HW,2013-05-08 01:30:00,
2013-05-07 21:35:00,59.9,57.6,29.50,East,90,1.1,1.1,92,0.00,,,0.01,WUHU216HW,2013-05-08 01:35:00,
2013-05-07 21:59:00,59.8,57.4,29.51,ESE,113,0.4,0.4,92,0.00,,,0.01,WUHU216HW,2013-05-08 01:59:00,
2013-05-07 22:04:00,59.8,57.4,29.51,ESE,113,0.4,0.4,92,0.00,,,0.01,WUHU216HW,2013-05-08 02:04:00,
2013-05-07 22:30:00,59.8,57.4,29.51,East,90,1.1,1.1,92,0.00,,,0.01,WUHU216HW,2013-05-08 02:30:00,
2013-05-07 22:34:00,59.8,57.4,29.51,East,90,1.1,1.1,92,0.00,,,0.01,WUHU216HW,2013-05-08 02:34:00,
2013-05-07 23:00:00,59.6,57.2,29.50,NNE,23,0.7,0.7,92,0.00,,,0.01,WUHU216HW,2013-05-08 03:00:00,
2013-05-07 23:05:00,59.6,57.2,29.50,NNE,23,0.7,0.7,92,0.00,,,0.01,WUHU216HW,2013-05-08 03:05:00,
2013-05-07 23:30:00,59.6,57.6,29.51,SSE,158,4.7,4.7,93,0.00,,,0.01,WUHU216HW,2013-05-08 03:30:00,
2013-05-07 23:35:00,59.6,57.6,29.51,SSE,158,4.7,4.7,93,0.00,,,0.01,WUHU216HW,2013-05-08 03:35:00,